Regional Weather Roundup
Issued by NWS

Home | Current Version | Previous Version | Text Only | Print | Product List | Glossary On
Versions: 1 2 3 4 5 6 7 8 9 10 11 12 13 14 15 16 17 18 19 20 21 22 23 24 25 26 27 28 29 30 31 32 33 34 35 36 37 38 39 40 41 42 43 44 45 46 47 48 49 50
000
ASUS44 KFWD 200803
RWRTX
NORTH TEXAS HOURLY WEATHER ROUNDUP
NATIONAL WEATHER SERVICE FORT WORTH TX
300 AM CDT SAT SEP 20 2014

NOTE: "FAIR" INDICATES FEW OR NO CLOUDS BELOW 12,000 FEET WITH NO
SIGNIFICANT WEATHER AND/OR OBSTRUCTIONS TO VISIBILITY.

TXZ118-119-200900-
DALLAS/FORT WORTH METROPLEX

CITY           SKY/WX    TMP DP  RH WIND       PRES   REMARKS
DFW AIRPORT    MOCLDY    76  70  82 SE7       29.95S
DALLAS LOVE    MOCLDY    77  70  79 SE9       29.96R
FTW MEACHAM    MOCLDY    77  69  76 SE7       29.95S
DAL-EXECUTIVE  CLEAR     74  70  87 SE6       29.96R
FTW-ALLIANCE   PTCLDY    74  70  87 SE6       29.95S
FTW-NAS-JRB    MOCLDY    79  67  66 SE7       30.00R
FTW-SPINKS       N/A     71  67  88 CALM      29.97F
ARLINGTON      CLEAR     73  68  84 CALM      29.96R
GRAND PRAIRIE  PTCLDY    74  68  80 CALM      29.98S
ADDISON        PTCLDY    77  69  77 SE8       29.98S
MESQUITE       CLEAR     73  70  91 SE3       29.97R
LANCASTER      MOCLDY    72  68  88 CALM      29.97S FOG
$$

TXZ091>094-102>105-117-120-121-131>134-200900-
NORTH CENTRAL TEXAS

CITY           SKY/WX    TMP DP  RH WIND       PRES   REMARKS
SHRMAN/DENISON CLEAR     72  68  88 E5        29.99R
GAINESVILLE    CLEAR     71  69  93 CALM      29.99S
BOWIE          CLEAR     70  69  95 CALM      29.97S FOG
BRIDGEPORT     PTCLDY    72  66  82 CALM      29.98S
DECATUR        CLEAR     73  69  86 SE5       29.97S
DENTON         CLEAR     74  70  87 SE6       29.96R
MCKINNEY       CLEAR     73  70  90 S3        29.97R
GREENVILLE     CLEAR     72  68  88 CALM      29.98R
ROCKWALL       CLEAR     73  70  92 SE5       29.96S
TERRELL        CLEAR     75  71  87 SE3       29.97R
WAXAHACHIE     CLEAR     73  68  86 SE3       29.98S
CLEBURNE       PTCLDY    73  73 100 SE6       29.98S
GRANBURY       MOCLDY    76  71  83 SE6       29.97S
$$

TXZ083>090-098>101-113>116-127>130-139>142-154-155-200900-
WESTERN NORTH TEXAS

CITY           SKY/WX    TMP DP  RH WIND       PRES   REMARKS
WICHITA FALLS  PTCLDY    72  68  87 SE8       29.96S
WF-KICKAPOO    PTCLDY    72  67  84 E6        29.97S
VERNON         PTCLDY    72  66  79 E3        29.98R
ABILENE        CLOUDY    73  70  90 SE3       29.98F
ABILENE-DYESS  CLOUDY    72  65  78 SE6       29.97S
BRECKENRIDGE   MOCLDY    75  69  82 SE5       29.96S
MINERAL WELLS  MOCLDY    73  70  90 SE5       29.95S
STEPHENVILLE   MOCLDY    73  69  87 SE6       29.99S
COMANCHE       CLOUDY    72  72 100 SE7       29.97S
BROWNWOOD      CLOUDY    73  72  94 SE7       29.97S
COLEMAN        CLOUDY    72  70  94 CALM      29.98S FOG
$$

TXZ143>147-156>162-174-175-200900-
CENTRAL TEXAS

CITY           SKY/WX    TMP DP  RH WIND       PRES   REMARKS
WACO           PTCLDY    72  71  97 E6        29.95S
WACO-MCGREGOR  MOCLDY    73  68  83 SE8       29.96S
HILLSBORO      PTCLDY    74  70  86 E9        29.96S
CORSICANA      PTCLDY    75  70  84 SE6       29.97S
MEXIA          CLEAR     72  71  97 SE3       29.95S
HEARNE         CLOUDY    73  72  96 CALM      29.95S
CAMERON        CLEAR     73  73  98 CALM      29.95R
TEMPLE         CLOUDY    73  70  88 SE7       29.95R
KILLEEN        CLOUDY    75  72  88 SE7       29.94S
KILLEEN-SKYLRK CLOUDY    73  70  88 SE12      29.95S
FORT HOOD      CLOUDY    76  73  91 SE5       29.95S
HAMILTON       CLOUDY    73  73 100 S8        29.98S
LAMPASAS       CLOUDY    73  72  96 E3        29.96S
$$

TXZ095>097-106>112-122>126-135>138-148>153-164>167-200900-
EAST TEXAS

CITY           SKY/WX    TMP DP  RH WIND       PRES   REMARKS
PARIS          PTCLDY    72  64  78 SE6       29.99S
SULPHUR SPRNGS CLEAR     72  70  95 E3        30.00S
MOUNT PLEASANT CLEAR     71  70  98 CALM      29.99S
GILMER         CLEAR     73  72  94 CALM      29.99S
MINEOLA        CLEAR     70  70 100 CALM      29.98S FOG
TYLER          CLEAR     73  69  87 SE3       29.97S
LONGVIEW       CLEAR     71  68  90 CALM      29.97S
MARSHALL       CLEAR     72  70  91 CALM      29.99S
ATHENS         CLEAR     68  68 100 CALM      29.96S
PALESTINE      MOCLDY    73  71  96 CALM      29.97S
JACKSONVILLE   CLEAR     73  70  91 CALM      29.99F
HENDERSON      CLEAR     69  69  99 CALM      29.98S
NACOGDOCHES    CLEAR     68  64  88 CALM      29.97S
LUFKIN         CLEAR     73  69  87 CALM      29.95F
$$

SUPPLEMENTAL OBSERVATIONS (CENTRAL)

CITY           SKY/WX    TMP DP  RH WIND       PRES   REMARKS
$$

SUPPLEMENTAL OBSERVATIONS (WEST)

CITY           SKY/WX    TMP DP  RH WIND       PRES   REMARKS
$$

SUPPLEMENTAL OBSERVATIONS (EAST)

CITY           SKY/WX    TMP DP  RH WIND       PRES   REMARKS
$$

SUPPLEMENTAL OBSERVATIONS ARE A COLLECTION OF AUTOMATED INSTRUMENTS
THAT ARE MAINTAINED BY A VARIETY OF FEDERAL AND STATE AGENCIES.
CERTAIN ELEMENTS...SUCH AS HUMIDITY VALUES AND SUSTAINED WIND
SPEEDS...MAY BE APPROXIMATED.



USA.gov is the U.S. government's official web portal to all federal, state and local government web resources and services.